Regional Weather Roundup
Issued by NWS

Home | Current Version | Previous Version | Text Only | Print | Product List | Glossary On
Versions: 1 2 3 4 5 6 7 8 9 10 11 12 13 14 15 16 17 18 19 20 21 22 23 24 25 26 27 28 29 30 31 32 33 34 35 36 37 38 39 40 41 42 43 44 45 46 47 48 49 50
000
ASUS43 KDTX 260201
RWRMI
MICHIGAN HOURLY REGIONAL WEATHER ROUNDUP
NATIONAL WEATHER SERVICE DETROIT/PONTIAC MI
1000 PM EDT WED APR 25 2018

NOTE: "FAIR" INDICATES FEW OR NO CLOUDS BELOW 12,000 FEET WITH NO
SIGNIFICANT WEATHER AND/OR OBSTRUCTION TO VISIBILITY.

MIZ047>049-052>055-059>063-066>070-074>076-081>083-260300-
SOUTHEAST LOWER MICHIGAN

CITY           SKY/WX    TMP DP  RH WIND       PRES   REMARKS
ADRIAN         FAIR      49  33  54 NE7       29.95R
ALMA           CLOUDY    45  34  65 N6        29.99S
ANN ARBOR      FAIR      48  38  68 N10       29.95R
BAD AXE        CLOUDY    43  35  71 W3        29.97S
CARO           CLOUDY    42  35  75 CALM      29.97S
DETROIT CITY   FAIR      44  36  73 NE12      29.96R
DETROIT        FAIR      49  37  63 NE8       29.96R
FLINT          FAIR      43  36  76 NE8       29.98R
GROSSE ILE     FAIR      44  39  83 NE12      29.95R
HILLSDALE      FAIR      46  34  61 NW6       29.94R
HOWELL         FAIR      44  37  76 CALM      29.96S

CITY           SKY/WX    TMP DP  RH WIND       PRES   REMARKS
JACKSON        FAIR      49  40  71 N7        29.96R
LAMBERTVILLE   FAIR      49  42  74 E5        29.95R
LANSING        FAIR      46  35  65 N7        29.98R
LAPEER         CLOUDY    40  36  84 CALM      29.98S
MASON          FAIR      47  37  68 NE5       29.96S
MONROE         FAIR      46  40  81 E7        29.95R
MT. CLEMENS    CLEAR     42  41  99 N9        29.95S
PONTIAC        FAIR      44  36  73 N9        29.95R
PORT HOPE        N/A     40  34  79 W7        29.94S
PORT HURON     FAIR      39  34  81 NW3       29.97F
TRI CITIES     FAIR      43  37  79 CALM      29.99R
MIDLAND        CLOUDY    43  33  68 NW6       29.99R
TROY           FAIR      46  37  73 N7        29.98S
SAGINAW HB     CLOUDY    41  36  81 CALM      29.98S
$$
MIZ043>046-050>051-056>058-064>065-071>073-077>080-260300-
SOUTHWEST LOWER MICHIGAN

CITY           SKY/WX    TMP DP  RH WIND       PRES   REMARKS
BATTLE CREEK   FAIR      46  32  58 NW9       29.97R
BENTON HARBOR  FAIR      40  31  70 VRB5      30.01F
BIG RAPIDS     FAIR      42  29  59 CALM      29.99S
COLDWATER      FAIR      46  31  57 W7        29.97R
HOLLAND        FAIR      43  31  62 NW7       30.00R
GRAND RAPIDS   FAIR      47  32  56 N7        29.98R
IONIA          FAIR      45  33  62 N6        29.98R
KALAMAZOO      FAIR      44  31  60 NW7       29.98S
LUDINGTON      FAIR      35  31  82 CALM      30.02S
MARSHALL       FAIR      44  32  61 W3        29.96R
MOUNT PLEASANT FAIR      44  34  69 CALM      29.99R
MUSKEGON       FAIR      45  29  53 N9        30.01R
SOUTH HAVEN    FAIR      39  32  76 NW6       30.00F WCI  35
$$
MIZ016>042-260300-
NORTHERN LOWER MICHIGAN

CITY           SKY/WX    TMP DP  RH WIND       PRES   REMARKS
ALPENA         FAIR      39  28  64 NW8       29.97R WCI  33
BEAVER ISLAND  FAIR      37  29  71 NW5       30.01S WCI  34
CADILLAC       FAIR      37  28  70 CALM      29.98S
CHARLEVOIX     FAIR      35  30  83 CALM      30.03S
FRANKFORT      FAIR      38  28  67 NE3       30.01F
GAYLORD        FAIR      37  29  72 CALM      29.97S
HARBOR SPRINGS FAIR      33  32  96 CALM      29.99S
HOUGHTON LAKE  FAIR      38  29  70 NW7       29.99R WCI  33
MANISTEE       FAIR      35  29  78 CALM      30.02R
OSCODA         FAIR      36  30  80 W5        29.96S WCI  32
PELLSTON       FAIR      33  26  75 W6        29.99F WCI  28
ROGERS CITY    FAIR      38  27  65 NW5       29.99R WCI  34
TRAVERSE CITY  FAIR      41  29  62 NW3       30.00F
$$
MIZ007>008-015-260300-
EASTERN UPPER MICHIGAN

CITY           SKY/WX    TMP DP  RH WIND       PRES   REMARKS
KINROSS        FAIR      31  27  85 NW7       29.99S WCI  24
MACKINAC ISLAN FAIR      37  28  71 N6        29.98S WCI  32
NEWBERRY       FAIR      32  26  77 N3        29.99S
MUNISING         N/A     31  26  82 S3        30.01S
$$
MIZ004>006-011>014-085-260300-
CENTRAL UPPER MICHIGAN

CITY           SKY/WX    TMP DP  RH WIND       PRES   REMARKS
MANISTIQUE     FAIR      31  22  69 NW6       30.01S WCI  25
ESCANABA       FAIR      35  27  72 CALM      30.02S
MENOMINEE      FAIR      37  26  64 E3        30.03R
SAWYER-GWINN   CLEAR     37  21  52 CALM      29.99F
$$
MIZ001>003-009>011-084-260300-
WESTERN UPPER MICHIGAN

CITY           SKY/WX    TMP DP  RH WIND       PRES   REMARKS
IRON MOUNTAIN  FAIR      40  24  53 CALM      29.97S
HOUGHTON       FAIR      38  19  46 SW3       29.96F
COPPER HARBOR    N/A     33  24  69 CALM      29.98F
IRONWOOD       FAIR      38  24  57 SE5       29.96F WCI  34
$$

ABBREVIATIONS USED IN REMARKS
   TC - TEMPERATURE IN CELSIUS
  WCI - WIND CHILL INDEX
   HX - HEAT INDEX
  VSB - VISIBILITY





USA.gov is the U.S. government's official web portal to all federal, state and local government web resources and services.